TimeCDT,TemperatureF,Dew PointF,Humidity,Sea Level PressureIn,VisibilityMPH,Wind Direction,Wind SpeedMPH,Gust SpeedMPH,PrecipitationIn,Events,Conditions,WindDirDegrees,DateUTC
12:15 AM,69.8,62.6,78,29.75,10.0,South,5.8,-,N/A,,Clear,170,2012-10-21 05:15:00
12:35 AM,69.8,62.6,78,29.75,10.0,South,4.6,-,N/A,,Clear,180,2012-10-21 05:35:00
12:55 AM,69.8,62.6,78,29.75,10.0,South,4.6,-,N/A,,Clear,190,2012-10-21 05:55:00
1:15 AM,68.0,62.6,83,29.76,10.0,Calm,Calm,-,N/A,,Clear,0,2012-10-21 06:15:00
1:35 AM,68.0,62.6,83,29.76,10.0,South,3.5,-,N/A,,Clear,190,2012-10-21 06:35:00
1:55 AM,68.0,64.4,88,29.76,10.0,South,3.5,-,N/A,,Clear,190,2012-10-21 06:55:00
2:15 AM,69.8,64.4,83,29.76,10.0,South,5.8,-,N/A,,Clear,190,2012-10-21 07:15:00
2:35 AM,71.6,64.4,78,29.77,10.0,SSW,6.9,-,N/A,,Clear,200,2012-10-21 07:35:00
2:55 AM,71.6,66.2,83,29.77,10.0,SSW,6.9,-,N/A,,Clear,200,2012-10-21 07:55:00
3:15 AM,71.6,66.2,83,29.77,10.0,SSW,6.9,-,N/A,,Clear,200,2012-10-21 08:15:00
3:35 AM,71.6,68.0,88,29.77,10.0,SSW,9.2,-,N/A,,Clear,200,2012-10-21 08:35:00
3:55 AM,71.6,68.0,88,29.77,10.0,South,6.9,-,N/A,,Clear,190,2012-10-21 08:55:00
4:15 AM,71.6,68.0,88,29.77,10.0,SSW,8.1,-,N/A,,Scattered Clouds,200,2012-10-21 09:15:00
4:35 AM,71.6,68.0,88,29.77,10.0,SSW,10.4,-,N/A,,Mostly Cloudy,200,2012-10-21 09:35:00
4:55 AM,71.6,68.0,88,29.77,10.0,SSW,8.1,-,N/A,,Overcast,200,2012-10-21 09:55:00
5:15 AM,71.6,68.0,88,29.78,10.0,SSW,8.1,-,N/A,,Overcast,200,2012-10-21 10:15:00
5:35 AM,73.4,68.0,83,29.78,10.0,SSW,8.1,-,N/A,,Overcast,200,2012-10-21 10:35:00
5:55 AM,73.4,68.0,83,29.79,10.0,South,8.1,-,N/A,,Overcast,190,2012-10-21 10:55:00
6:15 AM,73.4,68.0,83,29.79,10.0,SSW,6.9,-,N/A,,Overcast,200,2012-10-21 11:15:00
6:35 AM,73.4,68.0,83,29.80,10.0,SSW,10.4,17.3,N/A,,Overcast,200,2012-10-21 11:35:00
6:55 AM,73.4,68.0,83,29.80,10.0,South,10.4,-,N/A,,Overcast,190,2012-10-21 11:55:00
7:15 AM,71.6,68.0,88,29.80,10.0,SSW,8.1,18.4,N/A,,Overcast,200,2012-10-21 12:15:00
7:35 AM,73.4,68.0,83,29.80,10.0,South,8.1,-,N/A,,Overcast,190,2012-10-21 12:35:00
7:55 AM,73.4,68.0,83,29.81,7.0,South,8.1,-,N/A,,Overcast,190,2012-10-21 12:55:00
8:15 AM,73.4,68.0,83,29.81,10.0,SSW,9.2,16.1,N/A,,Overcast,200,2012-10-21 13:15:00
8:35 AM,73.4,68.0,83,29.82,10.0,SSW,8.1,16.1,N/A,,Overcast,210,2012-10-21 13:35:00
8:55 AM,73.4,68.0,83,29.83,10.0,SSW,8.1,-,N/A,,Overcast,200,2012-10-21 13:55:00
9:15 AM,73.4,68.0,83,29.83,10.0,South,8.1,-,N/A,,Overcast,190,2012-10-21 14:15:00
9:55 AM,77.0,68.0,74,29.84,10.0,SSW,11.5,18.4,N/A,,Overcast,200,2012-10-21 14:55:00
10:15 AM,77.0,68.0,74,29.84,10.0,SSW,11.5,19.6,N/A,,Overcast,200,2012-10-21 15:15:00
10:55 AM,77.0,68.0,74,29.85,10.0,SSW,12.7,21.9,N/A,,Overcast,200,2012-10-21 15:55:00
11:15 AM,78.8,68.0,69,29.84,10.0,SSW,8.1,19.6,N/A,,Overcast,200,2012-10-21 16:15:00
12:15 PM,82.4,68.0,62,29.84,10.0,SSW,10.4,21.9,N/A,,Overcast,200,2012-10-21 17:15:00
12:35 PM,82.4,68.0,62,29.83,10.0,SSW,11.5,21.9,N/A,,Mostly Cloudy,210,2012-10-21 17:35:00
12:55 PM,84.2,66.2,55,29.82,10.0,SSW,11.5,19.6,N/A,,Scattered Clouds,200,2012-10-21 17:55:00
1:15 PM,84.2,66.2,55,29.82,10.0,South,16.1,24.2,N/A,,Mostly Cloudy,190,2012-10-21 18:15:00
1:35 PM,86.0,66.2,51,29.81,10.0,SSW,9.2,24.2,N/A,,Mostly Cloudy,200,2012-10-21 18:35:00
1:55 PM,86.0,66.2,51,29.80,10.0,South,15.0,20.7,N/A,,Scattered Clouds,190,2012-10-21 18:55:00
2:15 PM,86.0,64.4,48,29.79,10.0,South,13.8,20.7,N/A,,Scattered Clouds,190,2012-10-21 19:15:00
2:35 PM,86.0,64.4,48,29.79,10.0,SSW,13.8,20.7,N/A,,Scattered Clouds,210,2012-10-21 19:35:00
2:55 PM,86.0,64.4,48,29.78,10.0,SSW,12.7,21.9,N/A,,Scattered Clouds,210,2012-10-21 19:55:00
3:35 PM,86.0,64.4,48,29.77,10.0,SSW,17.3,26.5,N/A,,Scattered Clouds,200,2012-10-21 20:35:00
3:55 PM,87.8,64.4,46,29.77,10.0,SSW,10.4,23.0,N/A,,Clear,200,2012-10-21 20:55:00
4:15 PM,86.0,62.6,45,29.77,10.0,SSW,10.4,21.9,N/A,,Clear,210,2012-10-21 21:15:00
4:35 PM,86.0,64.4,48,29.77,10.0,SSW,11.5,24.2,N/A,,Clear,200,2012-10-21 21:35:00
5:35 PM,84.2,64.4,51,29.77,10.0,South,11.5,24.2,N/A,,Clear,190,2012-10-21 22:35:00
5:55 PM,84.2,64.4,51,29.77,10.0,South,10.4,20.7,N/A,,Clear,190,2012-10-21 22:55:00
6:15 PM,82.4,64.4,54,29.77,10.0,South,11.5,17.3,N/A,,Clear,190,2012-10-21 23:15:00
6:35 PM,82.4,64.4,54,29.78,10.0,South,11.5,17.3,N/A,,Clear,180,2012-10-21 23:35:00
6:55 PM,82.4,64.4,54,29.78,10.0,South,10.4,-,N/A,,Clear,190,2012-10-21 23:55:00
7:15 PM,80.6,64.4,58,29.79,10.0,South,8.1,-,N/A,,Clear,180,2012-10-22 00:15:00
7:35 PM,80.6,64.4,58,29.80,10.0,South,6.9,-,N/A,,Clear,170,2012-10-22 00:35:00
7:55 PM,78.8,64.4,61,29.80,10.0,South,9.2,-,N/A,,Clear,170,2012-10-22 00:55:00
8:35 PM,80.6,64.4,58,29.80,10.0,South,13.8,17.3,N/A,,Clear,180,2012-10-22 01:35:00
8:55 PM,80.6,64.4,58,29.81,10.0,South,11.5,16.1,N/A,,Clear,180,2012-10-22 01:55:00
9:35 PM,80.6,64.4,58,29.82,10.0,South,11.5,19.6,N/A,,Clear,190,2012-10-22 02:35:00
9:55 PM,80.6,64.4,58,29.82,10.0,South,10.4,18.4,N/A,,Clear,190,2012-10-22 02:55:00
10:15 PM,78.8,64.4,61,29.82,10.0,South,11.5,18.4,N/A,,Clear,190,2012-10-22 03:15:00
10:35 PM,78.8,64.4,61,29.82,10.0,SSW,11.5,19.6,N/A,,Clear,200,2012-10-22 03:35:00
11:15 PM,78.8,64.4,61,29.83,10.0,South,10.4,19.6,N/A,,Clear,190,2012-10-22 04:15:00
11:35 PM,78.8,64.4,61,29.83,10.0,South,12.7,19.6,N/A,,Clear,190,2012-10-22 04:35:00
11:55 PM,78.8,64.4,61,29.84,10.0,South,12.7,19.6,N/A,,Clear,190,2012-10-22 04:55:00